TimeEDT,TemperatureF,Dew PointF,Humidity,Sea Level PressureIn,VisibilityMPH,Wind Direction,Wind SpeedMPH,Gust SpeedMPH,PrecipitationIn,Events,Conditions,WindDirDegrees,DateUTC
12:53 AM,78.1,66.9,68,29.94,10.0,East,21.9,31.1,0.03,,Overcast,80,2011-10-09 04:53:00
1:53 AM,78.1,68.0,71,29.92,9.0,ENE,17.3,32.2,0.00,,Overcast,70,2011-10-09 05:53:00
2:53 AM,79.0,68.0,69,29.90,10.0,East,21.9,28.8,N/A,,Overcast,80,2011-10-09 06:53:00
3:38 AM,73.4,69.8,88,29.90,2.0,East,17.3,36.8,0.05,Rain,Light Rain,90,2011-10-09 07:38:00
3:45 AM,73.4,71.6,94,29.90,1.5,East,17.3,25.3,0.21,Rain,Heavy Rain,80,2011-10-09 07:45:00
3:53 AM,73.9,71.1,91,29.89,4.0,ENE,18.4,24.2,0.23,Rain,Light Rain,60,2011-10-09 07:53:00
4:06 AM,75.2,71.6,89,29.87,6.0,East,8.1,20.7,0.00,Rain,Light Rain,80,2011-10-09 08:06:00
4:16 AM,75.2,71.6,89,29.88,2.5,East,18.4,26.5,0.07,Rain,Rain,90,2011-10-09 08:16:00
4:21 AM,75.2,69.8,83,29.88,3.0,East,17.3,29.9,0.08,Rain,Light Rain,90,2011-10-09 08:21:00
4:31 AM,73.4,69.8,88,29.88,5.0,East,18.4,32.2,0.09,Rain,Light Rain,80,2011-10-09 08:31:00
4:43 AM,75.2,69.8,83,29.87,10.0,ENE,19.6,28.8,0.09,,Overcast,70,2011-10-09 08:43:00
4:53 AM,75.9,72.0,87,29.86,8.0,ENE,13.8,25.3,0.09,,Overcast,60,2011-10-09 08:53:00
5:40 AM,75.2,71.6,89,29.86,7.0,ENE,19.6,33.4,0.00,Rain,Light Rain,70,2011-10-09 09:40:00
5:53 AM,75.9,72.0,87,29.87,7.0,ENE,18.4,26.5,0.00,,Overcast,60,2011-10-09 09:53:00
6:53 AM,78.1,69.1,74,29.87,10.0,East,15.0,31.1,0.00,,Overcast,90,2011-10-09 10:53:00
7:38 AM,75.2,71.6,89,29.87,2.0,East,15.0,33.4,0.04,Rain,Rain,90,2011-10-09 11:38:00
7:50 AM,75.2,71.6,89,29.88,0.8,East,24.2,32.2,0.19,Rain,Heavy Rain,90,2011-10-09 11:50:00
7:53 AM,75.0,72.0,90,29.88,0.8,East,27.6,40.3,0.29,Rain,Heavy Rain,90,2011-10-09 11:53:00
8:03 AM,75.2,71.6,89,29.87,1.5,East,19.6,28.8,0.04,Rain,Heavy Rain,90,2011-10-09 12:03:00
8:18 AM,75.2,71.6,89,29.87,2.5,East,21.9,31.1,0.11,Rain,Light Rain,90,2011-10-09 12:18:00
8:25 AM,77.0,71.6,83,29.87,5.0,East,20.7,31.1,0.12,Rain,Light Rain,80,2011-10-09 12:25:00
8:53 AM,78.8,69.8,74,29.89,8.0,East,19.6,29.9,N/A,,Overcast,90,2011-10-09 12:53:00
9:14 AM,78.8,69.8,74,29.90,8.0,East,21.9,32.2,N/A,,Overcast,80,2011-10-09 13:14:00
9:24 AM,78.8,69.8,74,29.90,10.0,East,20.7,33.4,N/A,,Mostly Cloudy,80,2011-10-09 13:24:00
9:53 AM,78.1,70.0,76,29.89,9.0,ENE,16.1,26.5,N/A,,Mostly Cloudy,70,2011-10-09 13:53:00
10:53 AM,80.1,70.0,71,29.90,8.0,ENE,18.4,31.1,N/A,,Overcast,70,2011-10-09 14:53:00
11:00 AM,80.6,69.8,70,29.89,9.0,East,17.3,26.5,N/A,,Overcast,80,2011-10-09 15:00:00
11:21 AM,80.6,71.6,74,29.89,8.0,ENE,17.3,31.1,N/A,,Overcast,70,2011-10-09 15:21:00
11:53 AM,80.1,70.0,71,29.89,8.0,ENE,17.3,26.5,0.00,,Overcast,70,2011-10-09 15:53:00
12:53 PM,77.0,70.0,79,29.86,6.0,ENE,18.4,28.8,N/A,,Haze,70,2011-10-09 16:53:00
1:18 PM,78.8,69.8,74,29.85,9.0,ENE,23.0,35.7,N/A,,Overcast,60,2011-10-09 17:18:00
1:53 PM,78.1,69.1,74,29.83,9.0,NE,19.6,39.1,0.00,,Overcast,50,2011-10-09 17:53:00
2:07 PM,78.8,69.8,74,29.82,8.0,NE,26.5,39.1,0.00,Rain,Light Rain,50,2011-10-09 18:07:00
2:53 PM,77.0,69.1,76,29.81,9.0,ENE,29.9,42.6,0.00,Rain,Light Rain,60,2011-10-09 18:53:00
3:53 PM,75.0,68.0,79,29.78,8.0,NE,23.0,38.0,0.00,Rain,Light Rain,40,2011-10-09 19:53:00
4:53 PM,73.9,68.0,82,29.74,7.0,NNE,23.0,40.3,0.00,Rain,Light Rain,20,2011-10-09 20:53:00
5:00 PM,75.2,69.8,83,29.74,7.0,NNE,21.9,39.1,0.00,Rain,Light Rain,20,2011-10-09 21:00:00
5:53 PM,73.0,66.0,79,29.70,6.0,North,25.3,41.4,0.00,Rain,Light Rain,10,2011-10-09 21:53:00
6:53 PM,75.0,66.0,73,29.67,8.0,North,25.3,48.3,0.00,Rain,Light Rain,360,2011-10-09 22:53:00
7:53 PM,75.0,64.9,71,29.69,10.0,NNW,29.9,41.4,0.00,,Clear,340,2011-10-09 23:53:00
8:53 PM,72.0,66.0,81,29.74,10.0,NW,23.0,38.0,N/A,,Scattered Clouds,320,2011-10-10 00:53:00
9:53 PM,72.0,68.0,87,29.75,10.0,West,13.8,-,N/A,,Partly Cloudy,280,2011-10-10 01:53:00
10:13 PM,73.4,68.0,83,29.76,10.0,West,13.8,-,N/A,,Mostly Cloudy,260,2011-10-10 02:13:00
10:53 PM,73.0,68.0,84,29.74,10.0,West,15.0,-,N/A,,Mostly Cloudy,260,2011-10-10 02:53:00
11:04 PM,73.4,68.0,83,29.75,10.0,West,12.7,-,N/A,,Scattered Clouds,260,2011-10-10 03:04:00
11:53 PM,72.0,68.0,87,29.76,10.0,SW,10.4,-,N/A,,Mostly Cloudy,220,2011-10-10 03:53:00